Weather History for PHLI - December, 2011

Change the Weather History Date:

Friday, December 9, 2011

  Actual Average Record
Temperature  
Mean Temperature 75 °F 74 °F  
Max Temperature 78 °F 79 °F 86 °F (1995)
Min Temperature 72 °F 68 °F 60 °F (1966)
Degree Days  
Heating Degree Days 0 0  
Month to date heating degree days 0 0  
Since 1 July heating degree days 0 0  
Cooling Degree Days 10 9  
Month to date cooling degree days 50 81  
Year to date cooling degree days 3938 3772  
Growing Degree Days 25 (Base 50)    
Moisture  
Dew Point 63 °F    
Average Humidity 67    
Maximum Humidity 73    
Minimum Humidity 60    
Precipitation  
Precipitation T in 0.17 in 2.58 in (2010)
Month to date precipitation 0.36 1.44  
Year to date precipitation 39.90 33.29  
Snow  
Snow 0.00 in - - ()
Month to date snowfall 0.0  
Since 1 July snowfall 0.0  
Snow Depth 0.00 in    
Sea Level Pressure  
Sea Level Pressure 30.08 in    
Wind  
Wind Speed 15 mph (NE)    
Max Wind Speed 23 mph    
Max Gust Speed 29 mph    
Visibility 10 miles    
Events      
T = Trace of Precipitation, MM = Missing Value Source: NWS Daily Summary

Daily Weather History Graph

Daily Weather History Graph

Search for Another Location

Airport or City:

Trip Planner

Search our weather history database for the weather conditions in past years. The results will help you decide how hot, cold, wet, or windy it might be!

Date:

Astronomy

Dec. 09, 2011 Rise Set
Actual Time 7:04 AM HST 5:54 PM HST
Civil Twilight 6:40 AM HST 6:18 PM HST
Nautical Twilight 6:12 AM HST 6:46 PM HST
Astronomical Twilight 5:45 AM HST 7:14 PM HST
Moon 5:28 PM HST (12/9) 6:21 AM HST (12/9)
Length of Visible Light 11h 38m
Length of Day
10h 49m
Full, 100% of the Moon is Illuminated
Dec 9
Full
Dec 10
Full
Dec 17
Last Quarter
Dec 24
New
Dec 31
First Quarter

Hourly Weather History & Observations

Time (HST) Temp. Dew Point Humidity Pressure Visibility Wind Dir Wind Speed Gust Speed Precip Events Conditions
12:53 AM 73.0 °F 63.0 °F 71% 30.10 in 10.0 mi ENE 17.3 mph - N/A   Mostly Cloudy
1:53 AM 72.0 °F 62.1 °F 71% 30.09 in 10.0 mi ENE 15.0 mph 23.0 mph N/A   Partly Cloudy
2:53 AM 72.0 °F 61.0 °F 68% 30.08 in 10.0 mi NE 15.0 mph - N/A   Scattered Clouds
3:53 AM 72.0 °F 63.0 °F 73% 30.07 in 10.0 mi NE 15.0 mph - N/A   Mostly Cloudy
4:53 AM 72.0 °F 62.1 °F 71% 30.07 in 10.0 mi NE 12.7 mph - N/A   Partly Cloudy
5:53 AM 72.0 °F 61.0 °F 68% 30.06 in 10.0 mi NE 16.1 mph - N/A   Mostly Cloudy
6:53 AM 72.0 °F 61.0 °F 68% 30.08 in 10.0 mi ENE 12.7 mph - N/A   Partly Cloudy
7:53 AM 73.0 °F 62.1 °F 68% 30.09 in 10.0 mi NE 15.0 mph - N/A   Mostly Cloudy
8:53 AM 73.9 °F 64.0 °F 71% 30.11 in 10.0 mi ENE 17.3 mph - N/A   Scattered Clouds
9:53 AM 75.9 °F 64.0 °F 67% 30.11 in 10.0 mi ENE 17.3 mph - N/A   Mostly Cloudy
10:53 AM 77.0 °F 63.0 °F 62% 30.11 in 10.0 mi NE 16.1 mph - N/A   Scattered Clouds
11:53 AM 78.1 °F 66.0 °F 66% 30.09 in 10.0 mi ENE 16.1 mph - N/A   Mostly Cloudy
12:53 PM 78.1 °F 64.9 °F 64% 30.06 in 10.0 mi ENE 16.1 mph - N/A   Partly Cloudy
1:53 PM 77.0 °F 64.0 °F 64% 30.04 in 10.0 mi ENE 15.0 mph - 0.00 in   Partly Cloudy
2:53 PM 75.9 °F 64.0 °F 67% 30.04 in 10.0 mi NE 10.4 mph - N/A   Scattered Clouds
3:53 PM 75.0 °F 63.0 °F 66% 30.04 in 10.0 mi NE 16.1 mph - N/A   Scattered Clouds
4:53 PM 73.9 °F 63.0 °F 68% 30.04 in 10.0 mi NE 15.0 mph - N/A   Partly Cloudy
5:53 PM 73.0 °F 64.0 °F 73% 30.05 in 10.0 mi NE 16.1 mph - N/A   Scattered Clouds
6:53 PM 73.0 °F 63.0 °F 71% 30.06 in 10.0 mi NE 16.1 mph - N/A   Partly Cloudy
7:53 PM 73.0 °F 64.9 °F 76% 30.07 in 10.0 mi NE 18.4 mph - N/A   Scattered Clouds
8:53 PM 73.0 °F 64.0 °F 73% 30.08 in 10.0 mi NE 19.6 mph - N/A   Scattered Clouds
9:53 PM 73.0 °F 64.0 °F 73% 30.09 in 10.0 mi NE 17.3 mph - N/A   Scattered Clouds
10:53 PM 72.0 °F 64.9 °F 78% 30.10 in 10.0 mi NE 17.3 mph 26.5 mph N/A   Mostly Cloudy
11:53 PM 73.0 °F 64.0 °F 73% 30.10 in 10.0 mi NE 19.6 mph 23.0 mph N/A   Partly Cloudy